Lakeville, MN

6:57 PM CDT on August 22, 2017 (GMT -0500)
Airlake

Weather History for KLVN - July, 2013

Change the Weather History Date:

Tuesday, July 16, 2013

  Actual Average Record
Temperature  
Mean Temperature 79 °F -  
Max Temperature 89 °F 85 °F 96 °F (1988)
Min Temperature 69 °F 61 °F 48 °F (1973)
Cooling Degree Days 14    
Growing Degree Days 29 (Base 50)    
Moisture  
Dew Point 70 °F    
Average Humidity 76    
Maximum Humidity 100    
Minimum Humidity 52    
Precipitation  
Precipitation 0.00 in - - ()
Sea Level Pressure  
Sea Level Pressure 30.21 in    
Wind  
Wind Speed 2 mph (SW)    
Max Wind Speed 9 mph    
Max Gust Speed -    
Visibility 9 miles    
Events      
Averages and records for this station are not official NWS values.
T = Trace of Precipitation, MM = Missing Value Source: NWS Daily Summary

Daily Weather History Graph

Daily Weather History Graph

Search for Another Location

Airport or City:

Trip Planner

Search our weather history database for the weather conditions in past years. The results will help you decide how hot, cold, wet, or windy it might be!

Date:

Astronomy

Jul. 16, 2013 Rise Set
Actual Time 5:43 AM CDT 8:54 PM CDT
Civil Twilight 5:07 AM CDT 9:29 PM CDT
Nautical Twilight 4:21 AM CDT 10:15 PM CDT
Astronomical Twilight 3:25 AM CDT 11:11 PM CDT
Moon 2:31 PM CDT (7/16) 12:20 AM CDT (7/16)
Length of Visible Light 16h 22m
Length of Day
15h 11m
First Quarter, 56% of the Moon is Illuminated
Jul 16
First Quarter
Jul 22
Full
Jul 29
Last Quarter
Aug 6
New
Aug 14
First Quarter

Hourly Weather History & Observations

Time (CDT) Temp. Heat Index Dew Point Humidity Pressure Visibility Wind Dir Wind Speed Gust Speed Precip Events Conditions
12:10 AM 73.4 °F - 69.8 °F 88% 30.20 in 10.0 mi SSE 4.6 mph - N/A   Clear
12:30 AM 71.6 °F - 69.8 °F 94% 30.20 in 10.0 mi SSE 3.5 mph - N/A   Clear
12:50 AM 71.6 °F - 69.8 °F 94% 30.20 in 10.0 mi Calm Calm - N/A   Clear
1:10 AM 71.6 °F - 69.8 °F 94% 30.20 in 10.0 mi Calm Calm - N/A   Clear
1:30 AM 71.6 °F - 69.8 °F 94% 30.20 in 10.0 mi Calm Calm - N/A   Clear
1:50 AM 71.6 °F - 69.8 °F 94% 30.20 in 7.0 mi Calm Calm - N/A   Clear
2:10 AM 71.6 °F - 69.8 °F 94% 30.20 in 7.0 mi Calm Calm - N/A   Scattered Clouds
2:30 AM 71.6 °F - 69.8 °F 94% 30.19 in 10.0 mi Calm Calm - N/A   Mostly Cloudy
2:50 AM 71.6 °F - 69.8 °F 94% 30.19 in 7.0 mi Calm Calm - N/A   Scattered Clouds
3:10 AM 69.8 °F - 68.0 °F 94% 30.19 in 5.0 mi Calm Calm - N/A   Clear
3:30 AM 69.8 °F - 69.8 °F 100% 30.19 in 7.0 mi Calm Calm - N/A   Clear
3:50 AM 69.8 °F - 69.8 °F 100% 30.19 in 5.0 mi Calm Calm - N/A   Clear
4:10 AM 69.8 °F - 69.8 °F 100% 30.19 in 5.0 mi Calm Calm - N/A   Clear
4:31 AM 69.8 °F - 69.8 °F 100% 30.19 in 5.0 mi Calm Calm - N/A   Clear
4:50 AM 69.8 °F - 68.0 °F 94% 30.19 in 3.0 mi Calm Calm - N/A   Clear
5:10 AM 69.8 °F - 68.0 °F 94% 30.19 in 4.0 mi Calm Calm - N/A   Clear
5:31 AM 69.8 °F - 68.0 °F 94% 30.20 in 3.0 mi Calm Calm - N/A   Clear
5:50 AM 69.8 °F - 68.0 °F 94% 30.20 in 4.0 mi Calm Calm - N/A   Clear
6:10 AM 69.8 °F - 69.8 °F 100% 30.20 in 4.0 mi Calm Calm - N/A   Clear
6:30 AM 71.6 °F - 69.8 °F 94% 30.21 in 5.0 mi Calm Calm - N/A   Clear
6:50 AM 73.4 °F - 71.6 °F 94% 30.21 in 7.0 mi South 3.5 mph - N/A   Clear
7:10 AM 73.4 °F - 71.6 °F 94% 30.21 in 7.0 mi Calm Calm - N/A   Clear
7:30 AM 75.2 °F - 71.6 °F 89% 30.21 in 10.0 mi Calm Calm - N/A   Clear
7:50 AM 77.0 °F - 71.6 °F 83% 30.22 in 10.0 mi Calm Calm - N/A   Clear
8:10 AM 78.8 °F - 71.6 °F 78% 30.22 in 10.0 mi SSW 5.8 mph - N/A   Clear
8:30 AM 78.8 °F - 71.6 °F 78% 30.23 in 10.0 mi Calm Calm - N/A   Clear
8:50 AM 80.6 °F 84.6 °F 71.6 °F 74% 30.23 in 10.0 mi SSW 5.8 mph - N/A   Clear
9:10 AM 80.6 °F 84.6 °F 71.6 °F 74% 30.23 in 10.0 mi WSW 3.5 mph - N/A   Clear
9:30 AM 82.4 °F 87.2 °F 71.6 °F 70% 30.23 in 10.0 mi SW 3.5 mph - N/A   Clear
9:50 AM 82.4 °F 87.2 °F 71.6 °F 70% 30.23 in 10.0 mi SSW 4.6 mph - N/A   Clear
10:11 AM 82.4 °F 87.2 °F 71.6 °F 70% 30.23 in 10.0 mi South 3.5 mph - N/A   Clear
10:30 AM 82.4 °F 87.2 °F 71.6 °F 70% 30.22 in 10.0 mi WSW 8.1 mph - N/A   Clear
10:50 AM 84.2 °F 89.6 °F 71.6 °F 66% 30.22 in 10.0 mi WSW 6.9 mph - N/A   Scattered Clouds
11:11 AM 84.2 °F 88.4 °F 69.8 °F 62% 30.23 in 10.0 mi WSW 6.9 mph - N/A   Clear
11:30 AM 84.2 °F 89.6 °F 71.6 °F 66% 30.23 in 10.0 mi WSW 4.6 mph - N/A   Scattered Clouds
11:50 AM 84.2 °F 88.4 °F 69.8 °F 62% 30.23 in 10.0 mi WSW 8.1 mph - N/A   Clear
12:11 PM 84.2 °F 88.4 °F 69.8 °F 62% 30.22 in 10.0 mi West 4.6 mph - N/A   Clear
12:30 PM 86.0 °F 90.4 °F 69.8 °F 58% 30.23 in 10.0 mi WSW 6.9 mph - N/A   Clear
12:50 PM 86.0 °F 90.4 °F 69.8 °F 58% 30.23 in 10.0 mi WSW 9.2 mph - N/A   Clear
1:10 PM 87.8 °F 92.6 °F 69.8 °F 55% 30.22 in 10.0 mi WSW 6.9 mph - N/A   Scattered Clouds
1:30 PM 87.8 °F 92.6 °F 69.8 °F 55% 30.22 in 10.0 mi SW 6.9 mph - N/A   Clear
1:50 PM 87.8 °F 92.6 °F 69.8 °F 55% 30.22 in 10.0 mi SSW 5.8 mph - N/A   Clear
2:10 PM 87.8 °F 93.8 °F 71.6 °F 58% 30.22 in 10.0 mi WSW 8.1 mph - N/A   Clear
2:30 PM 87.8 °F 92.6 °F 69.8 °F 55% 30.22 in 10.0 mi West 3.5 mph - N/A   Scattered Clouds
2:50 PM 87.8 °F 92.6 °F 69.8 °F 55% 30.22 in 10.0 mi WSW 5.8 mph - N/A   Clear
3:10 PM 89.6 °F 94.7 °F 69.8 °F 52% 30.21 in 10.0 mi WSW 8.1 mph - N/A   Clear
3:30 PM 87.8 °F 92.6 °F 69.8 °F 55% 30.21 in 10.0 mi SW 6.9 mph - N/A   Clear
3:50 PM 87.8 °F 92.6 °F 69.8 °F 55% 30.21 in 10.0 mi South 3.5 mph - N/A   Clear
4:10 PM 87.8 °F 92.6 °F 69.8 °F 55% 30.21 in 10.0 mi WSW 4.6 mph - N/A   Scattered Clouds
4:30 PM 87.8 °F 92.6 °F 69.8 °F 55% 30.20 in 10.0 mi WSW 3.5 mph - N/A   Scattered Clouds
4:50 PM 87.8 °F 91.4 °F 68.0 °F 52% 30.20 in 10.0 mi WSW 5.8 mph - N/A   Scattered Clouds
5:10 PM 89.6 °F 94.7 °F 69.8 °F 52% 30.21 in 10.0 mi SW 6.9 mph - N/A   Clear
5:16 PM 87.8 °F 92.6 °F 69.8 °F 55% 30.21 in 10.0 mi WSW 6.9 mph - N/A   Scattered Clouds
5:41 PM 87.8 °F 92.6 °F 69.8 °F 55% 30.20 in 10.0 mi SW 3.5 mph - N/A   Clear
6:01 PM 87.8 °F 92.6 °F 69.8 °F 55% 30.20 in 10.0 mi WSW 3.5 mph - N/A   Scattered Clouds
6:21 PM 87.8 °F 92.6 °F 69.8 °F 55% 30.19 in 10.0 mi WSW 3.5 mph - N/A   Clear
6:41 PM 87.8 °F 92.6 °F 69.8 °F 55% 30.19 in 10.0 mi WSW 3.5 mph - N/A   Clear
7:01 PM 87.8 °F 92.6 °F 69.8 °F 55% 30.19 in 10.0 mi SW 3.5 mph - N/A   Clear
7:21 PM 86.0 °F 91.8 °F 71.6 °F 62% 30.19 in 10.0 mi WSW 2.3 mph - N/A   Clear
7:41 PM 84.2 °F 89.6 °F 71.6 °F 66% 30.19 in 10.0 mi SW 1.2 mph - N/A   Clear
8:21 PM 80.6 °F 85.4 °F 73.4 °F 79% 30.20 in 10.0 mi Calm Calm - N/A   Clear
8:41 PM 80.6 °F 85.4 °F 73.4 °F 79% 30.20 in 7.0 mi Calm Calm - N/A   Clear
9:01 PM 78.8 °F - 73.4 °F 83% 30.20 in 10.0 mi South 2.3 mph - N/A   Clear
9:21 PM 78.8 °F - 73.4 °F 83% 30.21 in 10.0 mi SSW 1.2 mph - N/A   Clear
9:41 PM 75.2 °F - 73.4 °F 94% 30.22 in 10.0 mi Calm Calm - N/A   Clear
10:04 PM 75.2 °F - 71.6 °F 89% 30.22 in 10.0 mi Calm Calm - N/A   Clear
10:10 PM 75.2 °F - 71.6 °F 89% 30.23 in 10.0 mi Calm Calm - N/A   Clear
10:30 PM 75.2 °F - 71.6 °F 89% 30.23 in 10.0 mi Calm Calm - N/A   Clear
10:50 PM 73.4 °F - 71.6 °F 94% 30.23 in 10.0 mi Calm Calm - N/A   Clear
11:10 PM 73.4 °F - 71.6 °F 94% 30.23 in 10.0 mi Calm Calm - N/A   Clear
11:30 PM 75.2 °F - 71.6 °F 89% 30.23 in 10.0 mi Calm Calm - N/A   Clear
11:50 PM 75.2 °F - 71.6 °F 89% 30.23 in 10.0 mi Calm Calm - N/A   Clear